Current Version              Previous Version:    01  02  03  04  05  06  07  08  09  10  11  12  13  14  15  16  17  18  19  20  21  22  23  24  25  26  27  28  29  30  
   31  32  33  34  35  36  37  38  39  40  41  42  43  44  45  46  47  48  49  50  51  52  53  54  55  56  57  58  59  60  

[Printable]
638
ASUS44 KFWD 220815
RWRTX
NORTH TEXAS HOURLY WEATHER ROUNDUP
NATIONAL WEATHER SERVICE FORT WORTH TX
300 AM CDT MON SEP 22 2014

NOTE: "FAIR" INDICATES FEW OR NO CLOUDS BELOW 12,000 FEET WITH NO
SIGNIFICANT WEATHER AND/OR OBSTRUCTIONS TO VISIBILITY.

TXZ118-119-220900-
DALLAS/FORT WORTH METROPLEX

CITY           SKY/WX    TMP DP  RH WIND       PRES   REMARKS
DFW AIRPORT    MOCLDY    76  64  66 N10       30.12S
DALLAS LOVE    MOCLDY    77  65  66 NE8       30.11S
FTW MEACHAM    PTCLDY    76  66  71 NE9       30.12S
DAL-EXECUTIVE  PTCLDY    79  69  71 NE7       30.11S
FTW-ALLIANCE   MOCLDY    74  64  71 NE10      30.13R
FTW-NAS-JRB    CLEAR     79  66  64 NE6       30.17R
FTW-SPINKS     CLEAR     75  68  79 NE5       30.14R
ARLINGTON      PTCLDY    79  67  66 NE9       30.12R
GRAND PRAIRIE  PTCLDY    78  66  67 NE8       30.13S
ADDISON        PTCLDY    77  60  56 NE8       30.14S
MESQUITE       MOCLDY    76  69  79 NE5       30.11S
LANCASTER      MOCLDY    76  68  75 NE8       30.12R
$$

TXZ091>094-102>105-117-120-121-131>134-220900-
NORTH CENTRAL TEXAS

CITY           SKY/WX    TMP DP  RH WIND       PRES   REMARKS
SHRMAN/DENISON MOCLDY    71  55  55 NE7       30.17S
GAINESVILLE    MOCLDY    71  53  53 N8        30.18S
BOWIE          MOCLDY    72  54  53 NE6       30.17S
BRIDGEPORT     PTCLDY    73  55  53 E3        30.17S
DECATUR        PTCLDY    72  55  55 NE10      30.16R
DENTON         MOCLDY    75  55  49 NE9       30.14S
MCKINNEY       PTCLDY    74  60  61 N8        30.13S
GREENVILLE     CLOUDY    73  64  73 NE14      30.12S
ROCKWALL       PTCLDY    74  68  82 N8        30.10F
TERRELL        MOCLDY    77  72  84 N9        30.11R
WAXAHACHIE     PTCLDY    76  67  72 NE6       30.13S
CLEBURNE       CLEAR     75  68  78 NE8       30.14R
GRANBURY       CLEAR     76  68  76 N6        30.14R
$$

TXZ083>090-098>101-113>116-127>130-139>142-154-155-220900-
WESTERN NORTH TEXAS

CITY           SKY/WX    TMP DP  RH WIND       PRES   REMARKS
WICHITA FALLS  CLOUDY    71  58  63 NE9       30.17R
WF-KICKAPOO    PTCLDY    71  56  60 NE7       30.19R
VERNON         PTCLDY    68  59  71 CALM      30.20S
ABILENE        MOCLDY    74  66  76 S3        30.17S
ABILENE-DYESS  PTCLDY    70  61  74 W2        30.16S
BRECKENRIDGE   PTCLDY    75  64  67 E8        30.15S
GRAHAM         PTCLDY    73  65  74 NE6       30.15R
MINERAL WELLS  CLEAR     74  67  78 NE9       30.13R
STEPHENVILLE   PTCLDY    75  60  60 N8        30.16S
COMANCHE       PTCLDY    71  64  81 N3        30.14S
BROWNWOOD      MOCLDY    68  68 100 CALM      30.14S
COLEMAN        CLEAR     71  64  79 CALM      30.15F
BRADY          CLEAR     70  64  83 CALM      30.15S
$$

TXZ143>147-156>162-174-175-220900-
CENTRAL TEXAS

CITY           SKY/WX    TMP DP  RH WIND       PRES   REMARKS
WACO           CLEAR     70  65  84 CALM      30.08F
WACO-MCGREGOR  PTCLDY    70  61  73 CALM      30.10S
HILLSBORO      LGT RAIN  76  65  67 NE10      30.11S
CORSICANA      PTCLDY    76  66  71 NE9       30.10S
MEXIA          CLEAR     73  66  79 CALM      30.07S
HEARNE         CLEAR     70  69  96 CALM      30.07S
CAMERON        PTCLDY    72  67  85 CALM      30.08S
TEMPLE         PTCLDY    70  63  78 N5        30.09R
KILLEEN        PTCLDY    75  64  69 CALM      30.10S
KILLEEN-SKYLRK PTCLDY    70  63  78 CALM      30.10S
FORT HOOD      PTCLDY    73  66  78 CALM      30.10S
GATESVILLE     PTCLDY    70  64  83 CALM      30.13S
HAMILTON       PTCLDY    73  63  71 MISG      30.14S
LAMPASAS       PTCLDY    71  67  88 CALM      30.11S
$$

TXZ095>097-106>112-122>126-135>138-148>153-164>167-220900-
EAST TEXAS

CITY           SKY/WX    TMP DP  RH WIND       PRES   REMARKS
PARIS          MOCLDY    72  55  56 N10       30.14S
SULPHUR SPRNGS MOCLDY    74  70  87 N6        30.14S
MOUNT PLEASANT PTCLDY    75  67  76 N7        30.11S
GILMER         PTCLDY    75  72  88 N6        30.11S
MINEOLA        MOCLDY    75  70  83 N5        30.10F
TYLER          PTCLDY    75  69  81 NE5       30.09R
LONGVIEW       CLEAR     76  69  79 NE6       30.07S
MARSHALL       CLEAR     78  72  83 N5        30.09S
ATHENS         MOCLDY    73  68  83 N5        30.08S
PALESTINE      PTCLDY    73  68  83 NW5       30.08S
JACKSONVILLE   PTCLDY    76  67  75 N6        30.10S
HENDERSON      CLEAR     73  69  86 N3        30.09R
NACOGDOCHES    PTCLDY    75  66  73 N5        30.05S
LUFKIN         PTCLDY    74  69  85 CALM      30.04S
$$

SUPPLEMENTAL OBSERVATIONS (CENTRAL)

CITY           SKY/WX    TMP DP  RH WIND       PRES   REMARKS
LAKE TEXOMA      N/A     70  55  60 N5          N/A
CADDO GRASSLND   N/A    N/A N/A N/A N2          N/A
PAT MAYSE LAKE   N/A     70  59  68 N2          N/A
GREENVILLE       N/A     73  68  83 N7G17       N/A
CEDAR HILL       N/A     77  68  73 NE6         N/A
ATHENS           N/A     73  68  83 N1          N/A
PALESTINE        N/A     70  66  88 CALM        N/A
LAKE LIMESTONE   N/A     70  66  88 CALM        N/A
MCGREGOR         N/A     70  64  83 CALM        N/A
TEMPLE           N/A     75  66  73 W3          N/A
$$

SUPPLEMENTAL OBSERVATIONS (WEST)

CITY           SKY/WX    TMP DP  RH WIND       PRES   REMARKS
MILLERS CREEK    N/A     72  63  73 E10         N/A
POSSUM KINGDOM   N/A     73  66  78 E7          N/A
GRANBURY         N/A     75  66  73 NE6         N/A
COMANCHE         N/A     72  63  73 N3          N/A
HAMBY            N/A     70  66  88 SE2         N/A
COLORADO BEND    N/A     66  63  88 CALM        N/A
$$

SUPPLEMENTAL OBSERVATIONS (EAST)

CITY           SKY/WX    TMP DP  RH WIND       PRES   REMARKS
TEXARKANA        N/A     75  61  60 NE8G16      N/A
LINDEN           N/A     75  70  83 NE1         N/A
CADDO LAKE       N/A     77  70  78 NE5         N/A
LUFKIN           N/A     72  68  88 MISG        N/A
N SABINE NF      N/A     70  66  88 MISG        N/A
$$

SUPPLEMENTAL OBSERVATIONS ARE A COLLECTION OF AUTOMATED INSTRUMENTS
THAT ARE MAINTAINED BY A VARIETY OF FEDERAL AND STATE AGENCIES.
CERTAIN ELEMENTS...SUCH AS HUMIDITY VALUES AND SUSTAINED WIND
SPEEDS...MAY BE APPROXIMATED.